User: anonymous   Login
Location: Unspecified
(0.0000°N, 0.0000°E)
Time: 07:17:45
(UTC+00:00)
Language:

UNISAT 6 - Orbit

View from above orbital plane
View from above orbital plane
View from above satellite
View from above satellite

Ground track
Ground track

The orbit data is extracted from the following two-line orbital elements,

1 40012U 14033C   19082.91770322 +.00000138 +00000-0 +27948-4 0  9995
2 40012 097.7708 313.1996 0058928 019.1363 341.2041 14.73940345255900
Epoch (UTC): 23 March 2019 22:01:29
Eccentricity: 0.0058928
inclination: 97.7708°
perigee height: 607 km
apogee height: 690 km
right ascension of ascending node: 313.1996°
argument of perigee: 19.1363°
revolutions per day: 14.73940345
mean anomaly at epoch: 341.2041°
orbit number at epoch: 25590

The dashed part of the orbit path shows where the satellite is in the earth's shadow,  

DLR